UAL754 KATL-KAUS

Flight info

Callsign UAL754
Flight time N/A
Altitude 32000
Route POUNC2 GRGIA GARTS LCH WEEED WLEEE7
Aircraft B739/M-SDE2E3FGHIRWXY/LB1

Departure

Time 2026-05-01 15:09
Airport Hartsfield Jackson Atlanta International Airport (KATL)

Arrival

Time N/A
Airport Austin Bergstrom International Airport (KAUS)
Time Latitude Longitude Altitude Speed Heading
2026-05-01 14:41 33.63790 -84.44195 1005 ft 0 kts 270°
2026-05-01 15:02 33.63790 -84.44193 1005 ft 2 kts 270°
2026-05-01 15:02 33.63790 -84.44173 1005 ft 4 kts 267°
2026-05-01 15:02 33.63797 -84.44131 1005 ft 4 kts 240°
2026-05-01 15:02 33.63806 -84.44116 1005 ft 0 kts 220°
2026-05-01 15:05 33.63798 -84.44119 1005 ft 5 kts 195°
2026-05-01 15:06 33.63763 -84.44116 1005 ft 5 kts 174°
2026-05-01 15:06 33.63722 -84.44114 1005 ft 7 kts 180°
2026-05-01 15:06 33.63674 -84.44150 1006 ft 10 kts 235°
2026-05-01 15:06 33.63664 -84.44240 1006 ft 13 kts 270°
2026-05-01 15:07 33.63664 -84.44350 1005 ft 14 kts 270°
2026-05-01 15:07 33.63663 -84.44464 1005 ft 14 kts 269°
2026-05-01 15:07 33.63664 -84.44580 1005 ft 14 kts 270°
2026-05-01 15:07 33.63662 -84.44697 1005 ft 14 kts 261°
2026-05-01 15:08 33.63604 -84.44774 1005 ft 13 kts 195°
2026-05-01 15:08 33.63518 -84.44780 1005 ft 12 kts 178°
2026-05-01 15:08 33.63473 -84.44723 1005 ft 10 kts 99°
2026-05-01 15:08 33.63471 -84.44520 1005 ft 54 kts 90°
2026-05-01 15:09 33.63471 -84.43773 1006 ft 125 kts 90°
2026-05-01 15:09 33.63470 -84.42492 1075 ft 172 kts 90°
2026-05-01 15:09 33.63469 -84.41005 1623 ft 188 kts 90°
2026-05-01 15:09 33.63461 -84.39367 2109 ft 204 kts 91°
2026-05-01 15:10 33.63433 -84.37638 2755 ft 209 kts 91°
2026-05-01 15:10 33.63259 -84.33780 3112 ft 262 kts 103°
2026-05-01 15:10 33.62575 -84.31763 3985 ft 259 kts 108°
2026-05-01 15:11 33.62336 -84.29633 4796 ft 260 kts 82°
2026-05-01 15:11 33.64550 -84.26503 6233 ft 265 kts 13°
2026-05-01 15:11 33.66379 -84.26581 6938 ft 268 kts 339°
2026-05-01 15:12 33.68049 -84.27611 7664 ft 270 kts 338°
2026-05-01 15:12 33.71787 -84.27603 9019 ft 277 kts 356°
2026-05-01 15:12 33.73720 -84.27814 9695 ft 279 kts 356°
2026-05-01 15:13 33.78212 -84.31952 10677 ft 326 kts 281°
2026-05-01 15:14 33.78949 -84.37651 10999 ft 365 kts 279°
2026-05-01 15:14 33.79409 -84.40735 11226 ft 380 kts 281°
2026-05-01 15:14 33.80495 -84.47024 12299 ft 388 kts 282°
2026-05-01 15:15 33.80636 -84.53497 13408 ft 394 kts 252°
2026-05-01 15:15 33.77832 -84.59134 14488 ft 399 kts 234°
2026-05-01 15:16 33.74594 -84.64648 15484 ft 406 kts 235°
2026-05-01 15:16 33.71354 -84.70229 16461 ft 411 kts 235°
2026-05-01 15:17 33.68059 -84.75946 17385 ft 417 kts 235°
2026-05-01 15:18 33.63066 -84.84617 18720 ft 425 kts 235°
2026-05-01 15:18 33.61381 -84.87539 19139 ft 428 kts 235°
2026-05-01 15:19 33.56260 -84.96403 20399 ft 435 kts 235°
2026-05-01 15:19 33.52790 -85.02396 21162 ft 441 kts 235°
2026-05-01 15:19 33.51023 -85.05444 21559 ft 443 kts 235°
2026-05-01 15:20 33.47490 -85.11535 22290 ft 448 kts 235°
2026-05-01 15:20 33.45720 -85.14582 22644 ft 450 kts 235°
2026-05-01 15:20 33.43914 -85.17687 22995 ft 453 kts 235°
2026-05-01 15:21 33.42248 -85.20863 23315 ft 455 kts 243°
2026-05-01 15:21 33.41011 -85.24367 23642 ft 457 kts 252°
2026-05-01 15:21 33.40131 -85.28005 23976 ft 459 kts 254°
2026-05-01 15:21 33.39266 -85.31690 24281 ft 461 kts 254°
2026-05-01 15:22 33.37499 -85.39086 24890 ft 465 kts 253°
2026-05-01 15:22 33.36584 -85.42821 25191 ft 467 kts 253°
2026-05-01 15:22 33.35663 -85.46547 25490 ft 469 kts 253°
2026-05-01 15:23 33.34725 -85.50319 25769 ft 471 kts 253°
2026-05-01 15:23 33.33787 -85.54080 26071 ft 471 kts 253°
2026-05-01 15:23 33.32859 -85.57801 26425 ft 470 kts 253°
2026-05-01 15:23 33.31923 -85.61546 26797 ft 469 kts 253°
2026-05-01 15:24 33.30988 -85.65287 27168 ft 468 kts 253°
2026-05-01 15:24 33.30065 -85.68978 27502 ft 467 kts 253°
2026-05-01 15:24 33.29131 -85.72711 27839 ft 467 kts 253°
2026-05-01 15:24 33.28196 -85.76436 28202 ft 466 kts 253°
2026-05-01 15:25 33.27261 -85.80152 28560 ft 465 kts 253°
2026-05-01 15:25 33.26328 -85.83856 28908 ft 464 kts 253°
2026-05-01 15:25 33.25409 -85.87499 29250 ft 463 kts 253°
2026-05-01 15:25 33.24475 -85.91192 29593 ft 462 kts 253°
2026-05-01 15:26 33.23546 -85.94869 29924 ft 462 kts 253°
2026-05-01 15:26 33.22613 -85.98554 30233 ft 461 kts 253°
2026-05-01 15:26 33.21693 -86.02179 30552 ft 460 kts 253°
2026-05-01 15:26 33.20761 -86.05855 30862 ft 459 kts 253°
2026-05-01 15:27 33.19833 -86.09503 31219 ft 457 kts 253°
2026-05-01 15:27 33.18921 -86.13088 31641 ft 454 kts 253°
2026-05-01 15:27 33.17997 -86.16712 31992 ft 452 kts 253°
2026-05-01 15:28 33.16162 -86.23899 32003 ft 454 kts 253°
2026-05-01 15:28 33.14327 -86.31065 32004 ft 451 kts 253°
2026-05-01 15:29 33.11589 -86.41726 32003 ft 448 kts 253°
2026-05-01 15:30 33.07480 -86.55711 32004 ft 448 kts 238°
2026-05-01 15:31 32.98581 -86.66010 32001 ft 450 kts 219°
2026-05-01 15:31 32.93709 -86.70756 32002 ft 452 kts 219°
2026-05-01 15:32 32.84048 -86.80296 32002 ft 454 kts 220°
2026-05-01 15:34 32.69486 -86.94699 32001 ft 453 kts 220°